Location: Burgerwiesen
(48.6500°N, 15.6167°E)
Time: 13:14:31
(UTC+00:00)

COSMOS 2406 - Pass Details

Date: 09 April 2020
Orbit: 842 x 865 km, 71.0° (Epoch: 02 June)

Event Time Altitude Azimuth Distance (km) Brightness Sun altitude
Exits shadow 20:55:02 20° 229° (SW) 1,867 4.9 -27.2°
Maximum altitude 20:58:57 58° 303° (WNW) 985 3.7 -27.5°
Drops below altitude 10° 21:04:36 10° 22° (NNE) 2,494 6.0 -28.0°
Sets 21:07:07 0° 27° (NNE) 3,437 6.8 -28.3°
